Weather in Listvyanka

Russia / Kemerovo Oblast     56°04′03″N   88°23′44″E
temp.,
°C
wind,
m/s
gust,
m/s
humid.,
%
clouds,
%
prec.,
mm/h
press.,
hPa
HPBL,
m
11 may, tue
tue1101:00+7ene34743 0.0 102063
04:00+6ene35800 0.0 101975
07:00+8ene49770 0.0 1018224
10:00+14e69480 0.0 10171472
13:00+17ene793376 0.0 10162759
16:00+18ene683087 0.0 10152749
19:00+16ene4739100 0.0 1016277
22:00+12nne41255100 0.0 1017229
12 may, wed
wed1201:00+10ne41062100 0.0 1018178
04:00+8ene3774100 0.0 1018123
07:00+9e3778100 0.0 1019206
10:00+14ene455736 0.0 1018797
13:00+16ne454172 0.0 10172281
16:00+17ne443593 0.0 10162396
19:00+16ene45416 0.0 10161035
22:00+10e36505 0.0 101789
13 may, thu
thu1301:00+8ese33475 0.0 101738
04:00+7ese22565 0.0 101712
07:00+9se23565 0.0 1017101
10:00+14se33395 0.0 1016960
13:00+16ese21325 0.0 10141969
16:00+18nne113015 0.0 10132327
19:00+17e1135100 0.0 10121141
22:00+13sse114199 0.0 101211
14 may, fri
fri1401:00+10nw347595 0.0 101287
04:00+9w2491100 0.8 1011237
07:00+9wnw4990100 2.6 1011662
10:00+9wnw71070100 0.2 10111259
13:00+4nw71194100 1.3 1014758
16:00+7nw7106182 0.1 10161513
19:00+6nw7106587 0.8 10191367
22:00+4wsw346817 0.0 102168
15 may, sat
sat1501:00+2wsw496978 0.0 1022179
04:00+2sw4969100 0.0 1022206
07:00+4wsw61164100 0.1 1021941
10:00+3sw91794100 2.3 1018839
13:00+4wsw91792100 8.6 1016890
16:00+6wsw91888100 1.1 1016697
19:00+5n4583100 0.1 1020460
22:00